Regional Weather Roundup
Issued by NWS

Home | Current Version | Previous Version | Text Only | Print | Product List | Glossary Off
Versions: 1 2 3 4 5 6 7 8 9 10 11 12 13 14 15 16 17 18 19 20 21 22 23 24 25 26 27 28 29 30 31 32 33 34 35 36 37 38 39 40 41 42 43 44 45 46 47 48 49 50

000
ASUS43 KOAX 181910
RWRNE

WEATHER ROUNDUP FOR NEBRASKA
NATIONAL WEATHER SERVICE OMAHA NE
100 PM CST THU DEC 18 2014

NOTES: SATELLITE DATA IS BEING USED TO AUGMENT CLOUD COVER ABOVE
       12000 FEET.
       "FAIR" INDICATES FEW OR NO CLOUDS BELOW 12,000 FEET WITH NO
       SIGNIFICANT WEATHER AND/OR OBSTRUCTIONS TO VISIBILITY.

  * THESE STATIONS DO NOT REPORT WEATHER SUCH AS RAIN...SNOW OR FOG.

NEZ001>004-019>022-054>056-182000-
NEBRASKA PANHANDLE

CITY           SKY/WX    TMP DP  RH WIND       PRES   REMARKS
SCOTTSBLUFF    MOSUNNY   17  13  84 NW3       30.06F FOG
ALLIANCE       SUNNY     27  23  85 W5        30.02F WCI  22
CHADRON        SUNNY     28  23  81 S5        30.03F WCI  23
KIMBALL        SUNNY     42  19  40 NW20G25   30.01F
SIDNEY         SUNNY     34  24  67 NW9       30.04F WCI  27
$$

NEZ057>060-069>072-079>082-182000-
SOUTHWEST NEBRASKA

CITY           SKY/WX    TMP DP  RH WIND       PRES   REMARKS
NORTH PLATTE   CLOUDY    28  25  88 SW9       30.09F WCI  19
IMPERIAL       CLOUDY    25  22  88 W5        30.08F FOG     WCI  19
LEXINGTON      CLOUDY    28  25  87 SW10      30.13S WCI  19
MCCOOK         CLOUDY    28  26  92 SW7       30.12F WCI  21
OGALLALA       SUNNY     24  22  91 W3        30.07F
$$

NEZ005>010-023>029-035>040-094-182000-
NORTH CENTRAL NEBRASKA

CITY           SKY/WX    TMP DP  RH WIND       PRES   REMARKS
VALENTINE      CLOUDY    27  23  85 SW8       30.06F FOG     WCI  19
AINSWORTH      CLOUDY    27  24  88 SW7       30.07F WCI  19
BROKEN BOW     CLOUDY    28  26  92 SW8       30.10F WCI  20
O`NEILL        CLOUDY    27  26  94 S5        30.12F WCI  22
THEDFORD       CLOUDY    28  26  89 SW9       30.07F WCI  20
$$

NEZ041-046>049-061>064-073>077-083>087-182000-
SOUTH CENTRAL NEBRASKA

CITY           SKY/WX    TMP DP  RH WIND       PRES   REMARKS
GRAND ISLAND   CLOUDY    28  23  81 SW7       30.16F WCI  21
AURORA         CLOUDY    28  26  89 SW5       30.16F WCI  23
HASTINGS       CLOUDY    28  23  81 SW5       30.15F WCI  23
HEBRON         PTSUNNY   31  25  79 CALM      30.18F
HOLDREGE       CLOUDY    28  26  91 SW5       30.13F FOG     WCI  23
KEARNEY *      CLOUDY    28  25  86 S8        30.14F WCI  20
YORK           CLOUDY    28  25  86 S5        30.17F WCI  23
$$

NEZ011>018-030>034-042>045-182000-
NORTHEAST NEBRASKA

CITY           SKY/WX    TMP DP  RH WIND       PRES   REMARKS
NORFOLK        CLOUDY    29  23  78 S8        30.17F WCI  21
ALBION         CLOUDY    27  22  81 SW6       30.16F WCI  21
BLAIR          CLOUDY    30  26  83 S6        30.20F WCI  24
COLUMBUS *     CLOUDY    28  19  69 S3        30.19F
FREMONT        CLOUDY    32  26  81 S6        30.21F WCI  26
TEKAMAH        CLOUDY    30  24  78 S7        30.21F WCI  23
WAYNE          CLOUDY    29  24  80 S7        30.19F WCI  22
$$

NEZ050>053-065>068-078-088>093-182000-
SOUTHEAST NEBRASKA

CITY           SKY/WX    TMP DP  RH WIND       PRES   REMARKS
LINCOLN        CLOUDY    31  26  82 S5        30.21F WCI  26
OMAHA EPPLEY   FLURRIES  30  25  81 S6        30.23F WCI  24
BEATRICE       CLOUDY    31  27  85 CALM      30.20F
FALLS CITY     CLOUDY    30  26  85 NE5       30.22F WCI  25
NEBRASKA CITY  CLOUDY    30  27  90 SE3       30.21F
PLATTSMOUTH    CLOUDY    30  25  82 S3        30.21F
$$

NEZ044-045-051>053-067-182000-
OMAHA AREA

CITY           SKY/WX    TMP DP  RH WIND       PRES   REMARKS
OMAHA EPPLEY   FLURRIES  30  25  81 S6        30.23F WCI  24
BLAIR          CLOUDY    30  26  83 S6        30.20F WCI  24
FREMONT        CLOUDY    32  26  81 S6        30.21F WCI  26
MILLARD        FLURRIES  31  26  81 S3        30.21F
OFFUTT AFB     PTSUNNY   30  27  86 SE6       30.21F WCI  24
PLATTSMOUTH    CLOUDY    30  25  82 S3        30.21F
WAHOO          CLOUDY    31  26  81 S6        30.21F WCI  25
$$



USA.gov is the U.S. government's official web portal to all federal, state and local government web resources and services.